Location: A�t �Alizem
(31.2076°N, 8.7872°W)
Time: 20:49:56
(UTC+00:00)

deb Explorer IX - Pass Details

Date: 29 June 2021
Orbit: 541 x 1234 km, 38.9° (Epoch: 01 August)

Event Time Altitude Azimuth Distance (km) Brightness Sun altitude
Exits shadow 02:05:15 44° 73° (ENE) 1,120 ? -31.8°
Drops below altitude 10° 02:09:47 10° 100° (E) 2,600 ? -31.4°
Sets 02:12:42 0° 104° (ESE) 3,663 ? -31.1°
